Погода в Далисичах

Россия / Брянская область     53°08′28″N   32°23′15″E
темп.,
°C
ветер,
м/с
пор.,
м/с
влажн.,
%
обл.,
%
осадки,
мм/ч
давл.,
гПа
погр.,
м
14 июня, пн
пн1400:00+13з11975 0.0 100811
03:00+12св00975 0.0 101011
06:00+14ю11979 0.0 101152
09:00+18ююв118453 0.0 1013498
12:00+23ю126112 0.0 10141150
15:00+24ююз225610 0.1 10141496
18:00+24юз216011 0.0 10141287
21:00+18ссз22875 0.1 101513
15 июня, вт
вт1500:00+16с119233 0.0 101511
03:00+15сз01935 0.0 101511
06:00+16сз11925 0.0 101543
09:00+21сз23735 0.0 1015551
12:00+24сз33598 0.0 10141398
15:00+25ссз335331 0.1 10121814
18:00+23сз347519 0.7 1012807
21:00+18ссз369412 2.1 1012129
16 июня, ср
ср1600:00+15ссз37950 0.0 1013142
03:00+14ссз379676 0.0 1013122
06:00+13ссз3794100 0.0 1014178
09:00+19с457697 0.0 1015441
12:00+23с45590 0.0 10151246
15:00+23ссз556224 0.4 10161265
18:00+22с56655 0.3 1016935
21:00+17с49799 0.3 1018225
17 июня, чт
чт1700:00+14св358081 0.0 1019104
03:00+12св35845 0.0 102190
06:00+12св38810 0.0 1022179
09:00+19всв36620 0.0 1023525
12:00+23в34450 0.0 10231646
15:00+24в34410 0.0 10231754
18:00+23всв24550 0.0 10231191
21:00+17всв36770 0.0 102490
18 июня, пт
пт1800:00+14юв24920 0.0 102665
03:00+13всв22920 0.0 102733
06:00+14в25875 0.0 1027136
09:00+19вюв35655 0.0 1027580
12:00+23вюв45515 0.0 10271242
15:00+24юв45510 0.0 10261462
18:00+23вюв35590 0.0 10261271
21:00+18юв22850 0.0 102634